Location: Laas
(43.4693°N, 0.3073°E)
Time: 16:05:41
(UTC+00:00)

CZ-4C R/B - Pass Details

Date: 25 October 2020
Orbit: 624 x 1378 km, 63.4° (Epoch: 23 November)

Event Time Altitude Azimuth Distance (km) Brightness Sun altitude
Rises 20:02:48 0° 325° (NW) 3,725 6.2 -33.7°
Reaches altitude 10° 20:05:33 10° 336° (NNW) 2,889 5.4 -34.2°
Enters shadow 20:09:43 29° 9° (N) 1,990 4.1 -34.9°
